AirNav   Phillips 66 Aviation Fuel
 
 561 users online  

9G5 Royalton Airport
Gasport, New York, USA

GOING TO GASPORT?


FAA INFORMATION EFFECTIVE 08 NOVEMBER 2018

Location

FAA Identifier: 9G5
Lat/Long: 43-10-55.2080N / 078-33-28.0990W
43-10.920133N / 078-33.468317W
43.1820022 / -78.5578053
(estimated)
Elevation: 628 ft. / 191 m (estimated)
Variation: 10W (1985)
From city: 1 mile SE of GASPORT, NY
Time zone: UTC -5 (UTC -4 during Daylight Saving Time)
Zip code: 14067

Airport Operations

Airport use: Open to the public
Activation date: 08/1961
Control tower: no
ARTCC: CLEVELAND CENTER
FSS: BUFFALO FLIGHT SERVICE STATION
NOTAMs facility: BUF (NOTAM-D service available)
Attendance: 0900-1800
Wind indicator: yes
Segmented circle: no
Lights: ACTVT MIRL RY 07/25-CTAF.

Airport Communications

CTAF/UNICOM: 122.8
WX ASOS at BUF (16 nm SW): PHONE 716-635-0532
WX ASOS at IAG (18 nm W): PHONE 716-297-6984
WX AWOS-3PT at GVQ (19 nm SE): 127.525 (585-343-6369)
  • CD THRU FLT SVCS 1-888-766-8267.

Nearby radio navigation aids

VOR radial/distance  VOR name  Freq  Var
BUFr022/15.7BUFFALO VOR/DME116.4008W
ROCr288/38.9ROCHESTER VOR/DME110.0012W

 
NDB name  Hdg/Dist  Freq  Var  ID
KLUMP029/11.623109WBU -... ..-
KATHI080/13.032910WIA .. .-

Airport Services

Fuel available: 100LL MOGAS
Parking: hangars and tiedowns
Airframe service: NONE
Powerplant service: NONE
Bottled oxygen: NONE
Bulk oxygen: NONE

Runway Information

Runway 7/25

Dimensions: 2530 x 35 ft. / 771 x 11 m
Surface: asphalt, in excellent condition
Runway edge lights: medium intensity
RUNWAY 7  RUNWAY 25
Gradient: 0.3%0.3%
Traffic pattern: leftleft
Displaced threshold: no300 ft.
Markings: NSTD, in good conditionNSTD, in good condition
Runway end identifier lights: nono
Obstructions: 15 ft. road, 231 ft. from runway, 2:1 slope to clear
2 TREES, 250FT AND 800FT BEYOND RWY 7 THRESHOLD, 78FT AND 105FT RIGHT OF CENTERLINE
65 ft. tree, 605 ft. from runway, 100 ft. left of centerline, 6:1 slope to clear

Airport Ownership and Management from official FAA records

Ownership: Privately-owned
Owner: ROYALTON AIRPORT, INC.
DALE & MACKEY RDS, PO BOX 64
GASPORT, NY 14067
Phone 716-946-5265
Manager: KENNETH MCARTHUR
RD 2
GASPORT, NY 14067
Phone 716-804-6857

Airport Operational Statistics

Aircraft based on the field: 41
Single engine airplanes: 35
Helicopters: 3
Ultralights: 3
    
Aircraft operations: avg 117/week *
82% local general aviation
16% transient general aviation
2% military
* for 12-month period ending 04 August 2017

Additional Remarks

ULTRA LGTS ON & INVOF ARPT.

Instrument Procedures

There are no published instrument procedures at 9G5.

Some nearby airports with instrument procedures:

0G0 - North Buffalo Suburban Airport (8 nm SW)
9G3 - Akron Airport (10 nm S)
9G6 - Pine Hill Airport (12 nm E)
KBUF - Buffalo Niagara International Airport (16 nm SW)
KIAG - Niagara Falls International Airport (18 nm W)
KGVQ - Genesee County Airport (19 nm SE)
 
Loc | Ops | Rwys | IFR | FBO | Links
Com | Nav | Svcs | Stats | Notes


 
Area around 9G5 (Royalton Airport)
 
Road maps at: MapQuest Bing Google
 
Aerial photo
WARNING: Photo may not be current or correct
Aerial photo of 9G5 (Royalton Airport)
Do you have a better or more recent aerial photo of Royalton Airport that you would like to share? If so, please send us your photo.

 
Sectional chart

 
Airport distance calculator
Flying to Royalton Airport? Find the distance to fly.

From to 9G5

Sunrise and sunset
Times for 15-Nov-2018
 Local
(UTC-5)
 Zulu
(UTC)
Morning civil twilight06:3711:37
Sunrise07:0812:08
Sunset16:5021:50
Evening civil twilight17:2022:20

Current date and time
Zulu (UTC)  15-Nov-2018 12:08:41
Local (UTC-5)  15-Nov-2018 07:08:41
 
METAR
KBUF 
17nm SW 
151154Z 07009KT 10SM OVC200 M03/M07 A3040 RMK AO2 SLP304 T10331072 11033 21039 56022
KIAG 
17nm W 
151153Z 09010KT 10SM CLR M04/M08 A3041 RMK AO2 SLP314 T10391078 11039 21044 56019 $
KGVQ 
19nm SE 
151156Z AUTO 11008KT 10SM CLR M05/M07 A3043 RMK AO2 SLP338 7//// T10501067 11044 21050 55014 FZRANO
CYSN 
27nm W 
150200Z 07006KT 15SM OVC028 M01/M05 A3054 RMK SC8 LAST STFD OBS / NEXT 151200 UTC SLP349
CWWZ 
29nm W 
151100Z AUTO 11011KT M02/M05 RMK AO1 SOG 04 6032 SLP306 T10171053
TAF
KBUF 
17nm SW 
151129Z 1512/1612 09009KT P6SM BKN200 FM151800 12008KT P6SM OVC050 FM152000 13009KT 3SM -SN OVC035 FM152200 13009KT 1SM -SN OVC020 FM160900 16004KT 1 1/2SM -SN OVC015 FM161100 19004KT 2SM -SN OVC012
KIAG 
17nm W 
151129Z 1512/1612 10009KT P6SM BKN200 FM152000 13009KT P6SM OVC035 FM152100 13009KT 1SM -SN OVC025 FM160000 09009KT 1SM -SN OVC012 FM160600 11005KT 1SM -SN OVC007 FM160900 16005KT 2SM -SN OVC015
NOTAMs
Click for the latest NOTAMs
NOTAMs are issued by the DoD/FAA and will open in a separate window not controlled by AirNav.

 

 
 

FBO, Fuel Providers, and Aircraft Ground Support

  
 Business Name 
 
 Contact 
 
 Services / Description 
 
Fuel Prices
 
Comments
  
Tanger-Aire 716-804-6857
no information available

If you are affiliated with Tanger-Aire and would like to show here your services, contact info, web link, logo, and more, click here
100LL Mogas
FS --- $4.75 
PS $5.75 --- 
 Updated 05-Nov-2018
 
   1 read write
FS=Full service
PS=Pump service
Update Fuel Prices
 

Would you like to see your business listed on this page?

 If your business provides an interesting product or service to pilots, flight crews, aircraft, or users of the Royalton Airport, you should consider listing it here.  To start the listing process, click on the button below
 
Add a business
 

Other Pages about Royalton Airport

Update a link
 
Copyright © AirNav, LLC. All rights reserved. Privacy Policy  Contact